Date,TemperatureHighF,TemperatureAvgF,TemperatureLowF,DewpointHighF,DewpointAvgF,DewpointLowF,HumidityHigh,HumidityAvg,HumidityLow,PressureMaxIn,PressureMinIn,WindSpeedMaxMPH,WindSpeedAvgMPH,GustSpeedMaxMPH,PrecipitationSumIn
2013-1-1,45.5,39.0,33.6,38.0,33.3,25.0,95,81,57,30.30,30.12,13,5,13,0.00
2013-1-2,49.6,39.9,32.4,31.3,18.1,9.2,90,44,30,30.15,30.00,13,5,13,0.00
2013-1-3,57.2,42.8,33.8,54.6,23.2,7.0,91,50,28,30.15,29.94,17,5,17,0.31
2013-1-4,58.1,53.3,48.4,55.8,50.8,46.1,92,91,88,30.21,30.03,13,2,13,0.16
2013-1-5,50.7,48.9,46.4,48.8,46.5,43.7,93,91,88,30.09,30.00,5,0,5,0.08
2013-1-6,48.9,48.9,48.9,46.4,46.4,46.4,91,91,91,30.12,30.00,0,0,0,0.08
2013-1-7,48.9,48.9,48.9,46.4,46.4,46.4,91,91,91,30.12,30.00,0,0,0,0.16
2013-1-9,48.9,48.9,48.9,46.4,46.4,46.4,91,91,91,30.12,29.83,0,0,0,0.20
2013-1-10,48.9,48.9,48.9,46.4,46.4,46.4,91,91,91,30.06,29.91,0,0,0,0.24
2013-1-11,48.9,48.9,48.9,46.4,46.4,46.4,91,91,91,30.21,30.03,0,0,0,0.08
2013-1-12,48.9,48.9,48.9,46.4,46.4,46.4,91,91,91,30.27,30.18,0,0,0,0.00
2013-1-13,48.9,48.9,48.9,46.4,46.4,46.4,91,91,91,30.36,30.27,0,0,0,0.00
2013-1-14,48.9,48.9,48.9,46.4,46.4,46.4,91,91,91,30.42,30.36,0,0,0,0.00
2013-1-15,48.9,48.9,48.9,46.4,46.4,46.4,91,91,91,30.50,30.42,0,0,0,0.00
2013-1-16,48.9,48.9,48.9,46.4,46.4,46.4,91,91,91,30.48,30.30,0,0,0,0.00
2013-1-17,48.9,48.9,48.9,46.4,46.4,46.4,91,91,91,30.30,30.24,0,0,0,0.00
2013-1-26,48.9,48.9,48.9,46.4,46.4,46.4,91,91,91,30.24,30.24,0,0,0,0.54
2013-2-1,48.9,48.9,48.9,46.4,46.4,46.4,91,91,91,30.24,30.24,0,0,0,0.27
2013-2-25,48.9,48.9,48.9,46.4,46.4,46.4,91,91,91,30.24,30.24,0,0,0,0.27
2013-3-19,48.9,48.9,48.9,46.4,46.4,46.4,91,91,91,30.24,30.21,0,0,0,0.09
2013-3-27,48.9,48.9,48.9,46.4,46.4,46.4,91,91,91,30.24,30.21,0,0,0,0.00
2013-9-29,48.9,48.9,48.9,46.4,46.4,46.4,91,91,91,30.21,30.21,0,0,0,0.00
2013-9-30,48.9,48.9,48.9,46.4,46.4,46.4,91,91,91,30.21,30.21,0,0,0,0.00
2013-10-1,48.9,48.9,48.9,46.4,46.4,46.4,91,91,91,30.21,30.21,0,0,0,0.00
2013-10-2,48.9,48.9,48.9,46.4,46.4,46.4,91,91,91,30.21,30.21,0,0,0,0.00
2013-10-3,48.9,48.9,48.9,46.4,46.4,46.4,91,91,91,30.21,30.21,0,0,0,0.00
2013-10-4,48.9,48.9,48.9,46.4,46.4,46.4,91,91,91,30.21,30.21,0,0,0,0.00